Location: Unspecified
(50.0830°N, 0.0000°E)
Time: 10:16:40
(UTC+00:00)

Envisat - Pass Details

Date: 22 November 2019
Orbit: 764 x 766 km, 98.1° (Epoch: 08 December)

Event Time Altitude Azimuth Distance (km) Brightness Sun altitude
Rises 18:45:13 0° 194° (SSW) 3,221 6.4 -24.7°
Reaches altitude 10° 18:47:46 10° 204° (SSW) 2,299 5.8 -25.1°
Maximum altitude 18:52:13 30° 266° (W) 1,341 4.8 -25.8°
Drops below altitude 10° 18:56:42 10° 328° (NNW) 2,314 5.8 -26.6°
Sets 18:59:17 0° 339° (NNW) 3,245 6.5 -27.0°
